GPS BIIRM-1 (PRN 17)

Last updated on Nov. 20, 2019, 4:20 a.m. UTC

1 28874U 05038A   19323.17425971 -.00000066  00000-0  00000+0 0  9991
2 28874  56.3953   8.4218 0135983 263.4511  72.7947  2.00572371103654
UTC
Height (km)
Latitude
Longitude
Inclination
Orbital Period
UTC large
Height (km)
Speed (km/s)
/
Latitude / Longitude
Inclination (degrees)
Orbital Period (minutes)
Azimuth
Elevation
Range (km)
Doppler Factor
iOS Compass Heading
iOS Angle

Next 30 passes for location: Hong Kong

Rise time Rise Azimuth (degrees) Set time Set Azimuth (degrees) Duration Max altitude (degrees)

No matching passes for this satellites